Location: Poughquag
(41.6090°N, 73.6820°W)
Time: 05:43:55
(UTC-05:00)

STRAND 1 - Pass Details

Date: 04 December 2023
Orbit: 766 x 778 km, 98.4° (Epoch: 24 February)

Event Time Altitude Azimuth Distance (km) Brightness Sun altitude
Rises 04:45:33 0° 139° (SE) 3,236 ? -25.3°
Reaches altitude 10° 04:48:03 10° 129° (SE) 2,311 ? -24.9°
Maximum altitude 04:52:32 32° 68° (ENE) 1,298 ? -24.1°
Drops below altitude 10° 04:57:01 10° 6° (N) 2,318 ? -23.2°
Sets 04:59:31 0° 357° (N) 3,247 ? -22.8°
